[[{"header":{"parameterUnit":"m.s-1","parameterCategory":1,"la1":30.2991,"la2":30.254,"lo1":-89.0895,"lo2":-89.0444,"dy":0.0017,"dx":0.0017,"nx":28,"ny":28,"refTime":"2024-08-03T09:00:00:Z","depth":0,"parameterNumber":2,"parameterNumberName":"U-component_of_WINDS"},"data":[0,0,0,0,0,0,0,0,0,0,0,0,0,0,0,0,0,0,0,0,0,0,0,0,0,0,0,0,0,0,0,0,0,0,0,0,0,0,0,0,0,0,0,0,0,0,0,0,0,0,0,0,0,0,0,0,0,0,3.8877,3.8878,0,3.8946,3.8947,3.8947,3.8834,3.883,3.8826,3.8823,3.8893,3.8899,3.8904,0,0,0,0,0,0,0,0,0,0,0,0,0,3.8647,3.8651,3.8877,3.8878,3.8879,3.8946,3.8947,3.8948,3.8835,3.883,3.8825,3.8821,3.8891,3.8898,3.8904,0,0,0,0,0,0,0,0,0,0,0,0,0,3.8734,3.8653,3.8877,3.883,3.8827,3.8946,3.8947,3.8948,3.8836,3.883,3.8824,3.8819,3.8889,3.8897,3.8905,3.9073,0,0,3.8931,3.8934,0,0,0,0,0,0,0,0,3.873,3.8743,3.8836,3.8834,3.883,3.8875,3.8891,3.899,3.8837,3.8832,3.8822,3.8816,3.8892,3.89,3.8925,3.9076,3.9079,3.8931,3.8936,3.894,3.8942,0,0,0,0,0,0,0,3.8724,3.8739,3.8904,3.8838,3.8834,3.8806,3.8812,3.8909,3.8894,3.8832,3.8824,3.8834,3.8889,3.8918,3.8926,3.908,3.8931,3.8938,3.8943,3.8947,3.937,3.9376,0,0,0,0,0,0,3.8723,3.8735,3.8902,3.8906,3.8764,3.8815,3.8821,3.8867,3.8893,3.8891,3.8839,3.8828,3.8906,3.8917,3.8928,3.9125,3.894,3.8947,3.8952,3.9364,3.9372,3.9379,0,0,0,0,0,0,3.8719,3.8739,3.8899,3.8818,3.8837,3.8825,3.8877,3.8871,3.8899,3.8897,3.8894,3.8871,3.8902,3.8917,3.9037,3.9126,3.8951,3.8959,3.9357,3.9366,3.9375,3.9521,0,0,0,0,0,0,3.8713,3.8738,3.8802,3.8821,3.8841,3.9008,3.8882,3.8877,3.8914,3.8901,3.8927,3.8925,3.8899,3.9026,3.9046,3.9134,3.8965,3.9349,3.9361,3.9372,3.9508,3.9534,3.9556,0,0,0,0,0,3.8705,3.884,3.8806,3.8826,3.8921,3.9013,3.9025,3.8992,3.8922,3.8985,3.8984,3.8924,3.9113,3.9039,3.906,3.9153,3.9343,3.9358,3.9371,3.9497,3.9529,3.9556,0,0,0,0,0,0,3.8832,3.8842,3.8804,3.8949,3.8981,3.8994,3.9073,3.9026,3.9079,3.9065,3.9021,3.9028,3.9158,3.9167,3.9084,3.9316,3.9216,3.9235,3.9305,3.9335,3.9359,3.9353,3.8972,0,0,0,0,0,3.8877,3.8951,3.8956,3.9084,3.9102,3.9085,3.9124,3.9096,3.9127,3.914,3.9147,3.918,3.9246,3.9291,3.9352,3.9509,3.9513,3.9583,3.9607,3.9627,3.9644,3.9727,3.9758,3.9425,3.9425,3.9425,0,0,3.8971,3.8985,3.9035,3.911,3.9131,3.9209,3.9097,3.9184,3.9241,3.9153,3.9267,3.9274,3.9308,3.9447,3.9509,3.9459,3.9737,3.9645,3.9661,3.9667,3.9745,3.9777,3.9805,3.9435,3.9433,3.9432,0,0,3.9181,3.92,3.9308,3.9332,3.9366,3.9354,3.938,3.94,3.9401,3.9515,3.945,3.9518,3.9633,3.966,3.9688,3.9909,3.9856,3.993,4.0056,4.0138,4.0164,4.0187,4.0265,4.0294,3.9947,3.9948,3.9948,0,3.9293,3.9408,3.937,3.9462,3.9496,3.942,3.9529,3.9554,3.9607,3.9632,3.9576,3.9719,3.9736,3.988,3.9934,3.996,3.9988,3.9927,4.0163,4.0186,4.0207,4.0281,4.0311,3.9956,3.9955,3.9954,3.9953,0,3.9543,3.9624,3.9708,3.976,3.9804,3.9905,3.9882,3.9931,3.9899,3.9893,4.001,4.0028,4.0091,4.0123,4.0093,4.0264,4.0232,4.017,4.0069,4.0248,4.0317,4.0345,3.9969,3.9966,3.9963,3.9961,0,0,3.9835,3.9866,3.9897,3.992,3.9952,4.0013,4.011,4.0172,4.0215,4.0254,4.0333,4.0433,4.0376,4.0409,4.0381,4.0452,4.0625,4.0382,4.0382,4.0426,4.0814,4.086,4.0893,4.0591,4.0596,4.06,4.0811,0,4.0044,4.0211,4.018,4.0342,4.0416,4.0345,4.0429,4.0458,4.0455,4.0517,4.0513,4.0584,4.0504,4.0523,4.0591,4.059,4.0703,4.0574,4.0664,4.0668,4.0657,4.0929,4.0978,4.1176,4.0838,4.0842,4.0846,0,4.031,4.0359,4.0529,4.0549,4.0579,4.0655,4.0709,4.0769,4.08,4.0793,4.083,4.0788,4.0884,4.0782,4.0914,4.0827,4.0862,4.0867,4.0874,4.088,4.0767,4.0943,4.1238,4.1268,4.0888,4.0884,4.0881,0,4.0505,4.0614,4.0729,4.0751,4.0777,4.0833,4.0846,4.0871,4.0911,4.0958,4.0983,4.1041,4.1073,4.1118,4.1093,4.1022,4.1229,4.1125,4.1225,4.1226,4.1272,4.1269,4.1577,4.1295,4.1295,4.1294,4.1294,0,4.0742,4.0848,4.0817,4.0889,4.1006,4.0969,4.1086,4.1091,4.1114,4.1185,4.1127,4.1194,4.1157,4.1222,4.1203,4.1314,4.1329,4.1326,4.1319,4.1331,4.1331,4.1353,4.1338,4.1302,4.13,4.1299,4.1298,0,4.098,4.0963,4.1084,4.1099,4.1106,4.1192,4.1204,4.1271,4.1263,4.1353,4.1372,4.1361,4.1434,4.1414,4.1493,4.148,4.1621,4.1597,4.1611,4.1604,4.1705,4.1696,4.2037,4.208,4.1772,4.1775,4.1777,0,4.1131,4.1212,4.1235,4.1279,4.1297,4.1367,4.1407,4.1373,4.1417,4.1458,4.152,4.1588,4.164,4.176,4.1759,4.1819,4.1796,4.1911,4.1805,4.1814,4.1797,4.1793,4.18,4.1933,4.1936,4.1939,4.1941,0,4.1402,4.139,4.1449,4.1507,4.1556,4.1599,4.1637,4.1675,4.1645,4.1697,4.1771,4.1812,4.1893,4.1961,4.2016,4.2029,4.1981,4.1975,4.2001,4.2014,4.2018,4.2016,4.1668,4.1967,4.1965,4.1963,4.1961,4.196,4.1601,4.1669,4.1696,4.1764,4.1789,4.1826,4.1889,4.189,4.1951,4.2014,4.1991,4.2076,4.2104,4.2173,4.2194,4.2259,4.2215,4.2254,4.2263,4.2273,4.2286,4.2008,4.2269,4.2269,4.2268,4.2267,4.2267,0,4.1868,4.1882,4.1945,4.2,4.2054,4.2004,4.2043,4.2091,4.2167,4.2198,4.2251,4.2336,4.2401,4.2405,4.2467,4.2519,4.2498,4.2536,4.2531,4.2535,4.2322,4.2293,4.2552,4.2552,4.2551,4.2551,4.2551,4.2551,4.2013,4.2125,4.2117,4.2241,4.2254,4.2337,4.2364,4.2397,4.2422,4.2519,4.2574,4.2576,4.2596,4.2658,4.2716,4.2716,4.2741,4.2787,4.2778,4.2579,4.255,4.2523,4.2496,4.2793,4.2794,4.2986,4.2988,4.2989]},{"header":{"parameterUnit":"m.s-1","parameterCategory":1,"la1":30.2991,"la2":30.254,"lo1":-89.0895,"lo2":-89.0444,"dy":0.0017,"dx":0.0017,"nx":28,"ny":28,"refTime":"2024-08-03T09:00:00:Z","depth":0,"parameterNumber":3,"parameterNumberName":"V-component_of_WINDS"},"data":[0,0,0,0,0,0,0,0,0,0,0,0,0,0,0,0,0,0,0,0,0,0,0,0,0,0,0,0,0,0,0,0,0,0,0,0,0,0,0,0,0,0,0,0,0,0,0,0,0,0,0,0,0,0,0,0,0,0,0.1388,0.1389,0,0.1443,0.1444,0.1445,0.1429,0.1427,0.1426,0.1425,0.1489,0.1492,0.1495,0,0,0,0,0,0,0,0,0,0,0,0,0,0.1276,0.1279,0.1388,0.1389,0.139,0.1443,0.1444,0.1445,0.1429,0.1427,0.1426,0.1425,0.1489,0.1492,0.1495,0,0,0,0,0,0,0,0,0,0,0,0,0,0.1328,0.1279,0.1388,0.1388,0.1388,0.1443,0.1444,0.1445,0.1429,0.1427,0.1426,0.1424,0.1487,0.1491,0.1496,0.1557,0,0,0.1508,0.151,0,0,0,0,0,0,0,0,0.1325,0.1332,0.1387,0.1388,0.1389,0.1427,0.1428,0.1483,0.1429,0.1414,0.1425,0.1423,0.1471,0.1476,0.1491,0.156,0.1562,0.1509,0.1511,0.1513,0.1514,0,0,0,0,0,0,0,0.1321,0.133,0.141,0.1388,0.1389,0.1387,0.1393,0.1439,0.1452,0.1415,0.1414,0.142,0.1471,0.1487,0.1492,0.1563,0.1509,0.1512,0.1515,0.1517,0.1686,0.1688,0,0,0,0,0,0,0.1316,0.1327,0.1409,0.1412,0.1352,0.1391,0.1397,0.1417,0.1451,0.1454,0.1422,0.1419,0.148,0.1487,0.1494,0.1568,0.1513,0.1517,0.1519,0.1684,0.1686,0.1689,0,0,0,0,0,0,0.1314,0.1324,0.1406,0.1369,0.1379,0.1395,0.1417,0.1419,0.1434,0.1456,0.1459,0.1435,0.1479,0.1488,0.1541,0.157,0.1519,0.1523,0.1682,0.1685,0.1688,0.1717,0,0,0,0,0,0,0.1311,0.1323,0.1345,0.137,0.1381,0.145,0.1419,0.1421,0.1441,0.1438,0.1469,0.1473,0.1478,0.1535,0.1545,0.1575,0.1526,0.1679,0.1683,0.1687,0.1713,0.172,0.1726,0,0,0,0,0,0.1307,0.1352,0.1346,0.1356,0.1408,0.1452,0.1459,0.1462,0.1443,0.1466,0.148,0.1472,0.1565,0.154,0.1552,0.1584,0.1677,0.1682,0.1686,0.171,0.1719,0.1726,0,0,0,0,0,0,0.1333,0.1356,0.1349,0.1403,0.1425,0.1449,0.1478,0.1471,0.1501,0.1498,0.1503,0.151,0.1564,0.1579,0.1551,0.1645,0.1619,0.1626,0.1633,0.1641,0.1648,0.1644,0.153,0,0,0,0,0,0.1345,0.1376,0.1394,0.1441,0.1452,0.1463,0.1482,0.1482,0.1507,0.1517,0.1535,0.1561,0.1596,0.1619,0.1653,0.1715,0.1722,0.1743,0.1749,0.1754,0.1761,0.1796,0.1805,0.1703,0.1703,0.1703,0,0,0.137,0.1386,0.1406,0.1446,0.1464,0.1498,0.1471,0.1508,0.1534,0.1524,0.1573,0.1587,0.1617,0.1675,0.1701,0.1689,0.179,0.176,0.1764,0.1768,0.1801,0.1811,0.1819,0.1706,0.1706,0.1705,0,0,0.1434,0.1448,0.1488,0.1506,0.1531,0.1538,0.1548,0.1572,0.158,0.163,0.1622,0.1655,0.1715,0.1737,0.1755,0.1827,0.1821,0.1838,0.1873,0.1906,0.1915,0.1922,0.1948,0.1958,0.1844,0.1844,0.1844,0,0.1463,0.1511,0.1511,0.1548,0.1567,0.1555,0.1597,0.1615,0.1652,0.1666,0.1651,0.1726,0.1745,0.1808,0.1825,0.1841,0.1854,0.1835,0.1913,0.192,0.1927,0.1952,0.1962,0.1846,0.1846,0.1845,0.1845,0,0.1546,0.158,0.161,0.1642,0.1665,0.1704,0.1712,0.1735,0.1733,0.1742,0.1794,0.1816,0.1854,0.1869,0.1869,0.1932,0.1924,0.1911,0.1885,0.1939,0.1963,0.1972,0.1849,0.1848,0.1847,0.1847,0,0,0.163,0.1659,0.1671,0.1685,0.1712,0.174,0.178,0.1814,0.1834,0.186,0.1895,0.1946,0.1934,0.1955,0.1957,0.1987,0.2043,0.1971,0.1971,0.1984,0.2116,0.2126,0.2137,0.2039,0.2041,0.2042,0.2114,0,0.1696,0.1763,0.1763,0.1826,0.1859,0.1848,0.1883,0.1905,0.1915,0.1945,0.1957,0.1993,0.1974,0.1987,0.2015,0.203,0.207,0.2025,0.2074,0.2076,0.2068,0.215,0.2161,0.2228,0.2123,0.2125,0.2126,0,0.1783,0.1808,0.1874,0.1896,0.1909,0.194,0.1972,0.2001,0.2026,0.2031,0.2054,0.2052,0.2096,0.2067,0.2128,0.2097,0.2118,0.2128,0.2131,0.2137,0.2105,0.2159,0.2249,0.2259,0.214,0.2139,0.2138,0,0.1838,0.1889,0.1934,0.1947,0.1974,0.1996,0.2009,0.2032,0.2053,0.2082,0.2096,0.213,0.2149,0.2177,0.2185,0.2163,0.2246,0.2219,0.2254,0.2254,0.2273,0.2272,0.2368,0.2284,0.2284,0.2284,0.2283,0,0.1913,0.1954,0.1959,0.1988,0.2034,0.2034,0.2081,0.2092,0.2113,0.2145,0.2139,0.217,0.2178,0.2211,0.2218,0.2268,0.2277,0.2284,0.2285,0.2285,0.2284,0.2299,0.2296,0.2286,0.2286,0.2285,0.2285,0,0.1983,0.1988,0.2037,0.2058,0.2064,0.2097,0.2116,0.2144,0.2152,0.2193,0.2203,0.2218,0.2256,0.2266,0.2313,0.2318,0.2378,0.2374,0.2368,0.2369,0.2404,0.2401,0.2515,0.253,0.2434,0.2435,0.2436,0,0.2031,0.2062,0.2085,0.2104,0.2117,0.2149,0.217,0.2172,0.2194,0.2225,0.225,0.2287,0.2317,0.238,0.2397,0.2433,0.2432,0.2469,0.2437,0.2436,0.2434,0.2432,0.2436,0.2475,0.2476,0.2477,0.2478,0,0.2116,0.2117,0.2145,0.2174,0.2198,0.2222,0.2245,0.2262,0.2268,0.2294,0.2332,0.2355,0.2401,0.244,0.2476,0.2492,0.2487,0.2487,0.2498,0.2498,0.2494,0.2498,0.2386,0.2485,0.2484,0.2484,0.2483,0.2483,0.2178,0.2205,0.2225,0.2257,0.2273,0.2295,0.2322,0.2333,0.2364,0.24,0.24,0.2442,0.2468,0.2515,0.2533,0.2568,0.2557,0.2572,0.2576,0.258,0.2583,0.2487,0.2575,0.2574,0.2574,0.2574,0.2574,0,0.2264,0.2275,0.2304,0.2335,0.2361,0.235,0.2375,0.2398,0.2434,0.2457,0.2486,0.253,0.2567,0.2585,0.2622,0.2646,0.2645,0.2656,0.2655,0.266,0.259,0.2578,0.2657,0.2657,0.2657,0.2657,0.2657,0.2657,0.2311,0.2356,0.2359,0.2413,0.2426,0.2464,0.248,0.25,0.2518,0.2567,0.2596,0.2607,0.2629,0.2667,0.2701,0.2706,0.2721,0.2733,0.2737,0.2673,0.2664,0.2656,0.2645,0.2736,0.2736,0.2804,0.2804,0.2805]}]]